This demonstration page uses our WeatherBlox Daily Observations layout. Learn more.

Left ArrowRight Arrow

Hourly Observations for February 19, 2020

Temp ( °F °C ) Dew Point ( °F °C ) Humidity (%) Winds ( mph kmh ) Pressure ( in mb ) Visibility ( mi km ) Precip ( " mm )
12:53 am 00:53 Mostly Clear 0 -17.8 -5 -20.6 79 79 ENE 6 9 30.58 1036 10 16 0.00 0.00
1:53 am 01:53 Partly Cloudy -5 -20.6 -10 -23.3 79 79 Calm 30.59 1036 10 16 0.00 0.00
2:53 am 02:53 Partly Cloudy -7 -21.7 -11 -23.9 82 82 SW 5 7 30.60 1036 10 16 0.00 0.00
3:53 am 03:53 Mostly Cloudy -5 -20.6 -10 -23.3 79 79 Calm 30.59 1036 10 16 0.00 0.00
4:53 am 04:53 Clear -5 -20.6 -9 -22.8 83 83 SSW 3 6 30.59 1036 10 16 0.00 0.00
5:53 am 05:53 Clear -7 -21.7 -11 -23.9 82 82 WSW 5 7 30.61 1037 10 16 0.00 0.00
6:53 am 06:53 Clear -8 -22.2 -13 -25 78 78 W 3 6 30.62 1037 10 16 0.00 0.00
7:53 am 07:53 Sunny -7 -21.7 -12 -24.4 79 79 W 3 6 30.63 1037 10 16 0.00 0.00
8:53 am 08:53 Sunny -2 -18.9 -7 -21.7 79 79 Calm 30.63 1037 10 16 0.00 0.00
9:53 am 09:53 Sunny 2 -16.7 -3 -19.4 80 80 Calm 30.63 1037 10 16 0.00 0.00
10:53 am 10:53 Sunny 7 -13.9 1 -17.2 76 76 Calm 30.62 1037 10 16 0.00 0.00
11:53 am 11:53 Sunny 12 -11.1 3 -16.1 67 67 Calm 30.60 1036 10 16 0.00 0.00
12:53 pm 12:53 Sunny 16 -8.9 5 -15 62 62 ENE 3 6 30.57 1035 10 16 0.00 0.00
1:53 pm 13:53 Sunny 18 -7.8 8 -13.3 65 65 ESE 5 7 30.56 1035 10 16 0.00 0.00
2:53 pm 14:53 Sunny 19 -7.2 9 -12.8 65 65 E 7 11 30.55 1035 10 16 0.00 0.00
3:53 pm 15:53 Sunny 19 -7.2 9 -12.8 65 65 E 10 17 30.55 1035 10 16 0.00 0.00
4:53 pm 16:53 Sunny 18 -7.8 9 -12.8 68 68 ENE 8 13 30.54 1034 10 16 0.00 0.00
5:53 pm 17:53 Clear 15 -9.4 7 -13.9 70 70 E 9 15 30.54 1034 10 16 0.00 0.00
6:53 pm 18:53 Clear 13 -10.6 7 -13.9 77 77 ENE 8 13 30.55 1034 10 16 0.00 0.00
7:53 pm 19:53 Clear 12 -11.1 7 -13.9 80 80 ENE 6 9 30.55 1035 10 16 0.00 0.00
8:53 pm 20:53 Clear 6 -14.4 2 -16.7 83 83 ESE 5 7 30.55 1035 10 16 0.00 0.00
9:53 pm 21:53 Clear 2 -16.7 -1 -18.3 88 88 W 5 7 30.55 1034 10 16 0.00 0.00
10:53 pm 22:53 Clear 0 -17.8 -3 -19.4 87 87 W 5 7 30.54 1034 10 16 0.00 0.00
11:53 pm 23:53 Clear -2 -18.9 -6 -21.1 83 83 WSW 5 7 30.53 1034 10 16 0.00 0.00

Powered by AerisWeather